EXS22G LEMH-EGCC

Flight info

Callsign EXS22G
Flight time 2h 12m
Altitude 36000
Route N0446F360 MEROS N853 LUMAS DCT SOFFY DCT MRM DCT MTL DCT ETREK DCT MADOT DCT MOPEM DCT CACHI DCT AVLON DCT OKRIX DCT BRY DCT CLM DCT KOPOR DCT VESAN DCT RATUK DCT SOVAT L613 SANDY UN57 WELIN T420 ELVOS
Aircraft A321/M-SDE2E3FGHIJ1J3J4J5J7M3P2RWXYZ/LB1D1

Departure

Time 2026-05-05 13:09
Airport Menorca Airport (LEMH)

Arrival

Time 2026-05-05 15:21
Airport Manchester Airport (EGCC)
Time Latitude Longitude Altitude Speed Heading
2026-05-05 12:33 39.86469 4.22394 287 ft 0 kts 99°
2026-05-05 13:01 39.86471 4.22380 287 ft 4 kts 99°
2026-05-05 13:01 39.86474 4.22352 287 ft 4 kts 96°
2026-05-05 13:01 39.86473 4.22323 291 ft 4 kts 41°
2026-05-05 13:01 39.86452 4.22314 293 ft 4 kts
2026-05-05 13:02 39.86442 4.22312 291 ft 0 kts
2026-05-05 13:05 39.86445 4.22312 291 ft 3 kts
2026-05-05 13:05 39.86492 4.22323 293 ft 11 kts
2026-05-05 13:05 39.86538 4.22257 294 ft 13 kts 282°
2026-05-05 13:05 39.86593 4.22173 295 ft 15 kts 359°
2026-05-05 13:06 39.86709 4.22195 298 ft 20 kts
2026-05-05 13:06 39.86864 4.22227 300 ft 25 kts
2026-05-05 13:06 39.87050 4.22266 303 ft 28 kts
2026-05-05 13:06 39.87224 4.22302 309 ft 24 kts
2026-05-05 13:07 39.87355 4.22326 313 ft 14 kts 358°
2026-05-05 13:07 39.87393 4.22239 312 ft 12 kts 280°
2026-05-05 13:07 39.87372 4.22117 311 ft 15 kts 243°
2026-05-05 13:07 39.87329 4.22085 310 ft 0 kts 189°
2026-05-05 13:08 39.87326 4.22084 310 ft 3 kts 189°
2026-05-05 13:09 39.87193 4.22056 310 ft 50 kts 189°
2026-05-05 13:09 39.86618 4.21938 304 ft 114 kts 189°
2026-05-05 13:09 39.85672 4.21744 365 ft 154 kts 189°
2026-05-05 13:09 39.84657 4.21534 1122 ft 146 kts 192°
2026-05-05 13:10 39.83651 4.21323 1796 ft 147 kts 192°
2026-05-05 13:10 39.82638 4.21105 2298 ft 151 kts 192°
2026-05-05 13:10 39.81528 4.20863 2444 ft 172 kts 192°
2026-05-05 13:10 39.80279 4.20592 2587 ft 192 kts 192°
2026-05-05 13:11 39.78902 4.20296 2748 ft 209 kts 191°
2026-05-05 13:11 39.77387 4.19997 2849 ft 234 kts 186°
2026-05-05 13:11 39.75762 4.20524 3233 ft 254 kts 148°
2026-05-05 13:11 39.74642 4.22341 3857 ft 269 kts 112°
2026-05-05 13:12 39.74494 4.24795 4475 ft 283 kts 79°
2026-05-05 13:12 39.75207 4.27197 5165 ft 288 kts 62°
2026-05-05 13:12 39.76272 4.29408 5874 ft 291 kts 54°
2026-05-05 13:12 39.77533 4.31475 6575 ft 294 kts 49°
2026-05-05 13:13 39.78997 4.33345 7210 ft 298 kts 39°
2026-05-05 13:13 39.80697 4.34904 7827 ft 301 kts 28°
2026-05-05 13:13 39.82613 4.36039 8433 ft 305 kts 16°
2026-05-05 13:13 39.84680 4.36685 9041 ft 307 kts
2026-05-05 13:14 39.86816 4.36824 9631 ft 308 kts 353°
2026-05-05 13:14 39.88933 4.36456 10217 ft 307 kts 341°
2026-05-05 13:14 39.90994 4.35599 10494 ft 318 kts 331°
2026-05-05 13:14 39.92947 4.34199 10622 ft 332 kts 320°
2026-05-05 13:15 39.94737 4.32216 10798 ft 343 kts 308°
2026-05-05 13:15 39.96201 4.29764 11233 ft 345 kts 298°
2026-05-05 13:15 39.97674 4.27211 11782 ft 355 kts 310°
2026-05-05 13:15 39.99659 4.25300 12352 ft 366 kts 329°
2026-05-05 13:16 40.02124 4.24298 12930 ft 378 kts 349°
2026-05-05 13:16 40.04810 4.24465 13511 ft 388 kts
2026-05-05 13:16 40.07437 4.25168 14051 ft 392 kts
2026-05-05 13:16 40.10117 4.25898 14564 ft 394 kts
2026-05-05 13:17 40.12807 4.26634 15098 ft 397 kts
2026-05-05 13:17 40.15526 4.27378 15643 ft 400 kts
2026-05-05 13:17 40.18256 4.28117 16159 ft 403 kts
2026-05-05 13:17 40.21018 4.28858 16654 ft 406 kts
2026-05-05 13:18 40.23800 4.29600 17156 ft 409 kts
2026-05-05 13:18 40.26592 4.30343 17642 ft 412 kts
2026-05-05 13:18 40.29412 4.31096 18143 ft 415 kts
2026-05-05 13:18 40.32252 4.31857 18569 ft 417 kts
2026-05-05 13:19 40.35101 4.32623 18973 ft 420 kts
2026-05-05 13:19 40.37979 4.33400 19362 ft 423 kts
2026-05-05 13:19 40.40878 4.34185 19765 ft 427 kts
2026-05-05 13:19 40.43790 4.34974 20148 ft 430 kts
2026-05-05 13:20 40.46733 4.35772 20538 ft 433 kts
2026-05-05 13:20 40.49685 4.36571 20917 ft 435 kts
2026-05-05 13:20 40.52668 4.37350 21311 ft 438 kts
2026-05-05 13:20 40.55674 4.38082 21693 ft 440 kts
2026-05-05 13:21 40.58692 4.38787 22071 ft 443 kts
2026-05-05 13:21 40.61739 4.39491 22448 ft 445 kts
2026-05-05 13:21 40.64805 4.40202 22816 ft 448 kts
2026-05-05 13:21 40.67879 4.40926 23179 ft 451 kts
2026-05-05 13:22 40.70981 4.41663 23544 ft 454 kts
2026-05-05 13:22 40.74091 4.42406 23826 ft 457 kts
2026-05-05 13:22 40.77230 4.43160 24120 ft 459 kts
2026-05-05 13:22 40.80386 4.43919 24411 ft 462 kts
2026-05-05 13:23 40.83550 4.44680 24714 ft 464 kts
2026-05-05 13:23 40.86743 4.45451 24976 ft 467 kts
2026-05-05 13:23 40.89956 4.46229 25261 ft 470 kts
2026-05-05 13:23 40.93175 4.47012 25535 ft 473 kts
2026-05-05 13:24 40.96422 4.47803 25806 ft 475 kts
2026-05-05 13:24 40.99688 4.48594 26073 ft 478 kts
2026-05-05 13:24 41.02957 4.49384 26337 ft 480 kts
2026-05-05 13:24 41.06257 4.50184 26610 ft 483 kts
2026-05-05 13:25 41.09569 4.50988 26854 ft 486 kts
2026-05-05 13:25 41.12912 4.51803 27092 ft 489 kts
2026-05-05 13:25 41.16270 4.52627 27351 ft 492 kts
2026-05-05 13:25 41.19635 4.53451 27602 ft 494 kts
2026-05-05 13:26 41.23026 4.54279 27844 ft 496 kts
2026-05-05 13:26 41.26434 4.55110 28105 ft 499 kts
2026-05-05 13:26 41.29849 4.55947 28303 ft 502 kts
2026-05-05 13:26 41.33294 4.56789 28527 ft 504 kts
2026-05-05 13:27 41.36743 4.57630 28726 ft 506 kts
2026-05-05 13:27 41.40212 4.58478 29006 ft 507 kts
2026-05-05 13:27 41.43692 4.59330 29245 ft 509 kts
2026-05-05 13:27 41.47173 4.60188 29509 ft 511 kts
2026-05-05 13:28 41.50683 4.61055 29684 ft 514 kts
2026-05-05 13:28 41.54206 4.61928 29969 ft 514 kts
2026-05-05 13:28 41.57718 4.62801 30237 ft 515 kts
2026-05-05 13:28 41.61241 4.63677 30513 ft 514 kts
2026-05-05 13:29 41.64751 4.64549 30787 ft 514 kts
2026-05-05 13:29 41.68271 4.65421 31101 ft 514 kts
2026-05-05 13:29 41.71745 4.66277 31355 ft 514 kts
2026-05-05 13:29 41.75282 4.67414 31617 ft 520 kts
2026-05-05 13:30 41.78716 4.68754 31885 ft 520 kts 10°
2026-05-05 13:30 41.82240 4.70138 32160 ft 520 kts 10°
2026-05-05 13:30 41.85704 4.71502 32444 ft 520 kts 10°
2026-05-05 13:30 41.89132 4.72855 32755 ft 520 kts 10°
2026-05-05 13:31 41.92639 4.74239 33013 ft 520 kts 10°
2026-05-05 13:31 41.96112 4.75609 33287 ft 519 kts 10°
2026-05-05 13:31 41.99538 4.76959 33552 ft 519 kts 10°
2026-05-05 13:31 42.03043 4.78338 33822 ft 519 kts 10°
2026-05-05 13:32 42.06469 4.79685 33930 ft 518 kts 10°
2026-05-05 13:32 42.09916 4.81044 33979 ft 515 kts 10°
2026-05-05 13:32 42.16771 4.83762 33951 ft 513 kts 10°
2026-05-05 13:33 42.23625 4.86490 33937 ft 513 kts 10°
2026-05-05 13:33 42.30513 4.89232 33982 ft 513 kts 10°
2026-05-05 13:34 42.37323 4.91937 33941 ft 512 kts 10°
2026-05-05 13:34 42.44166 4.94659 33943 ft 513 kts 10°
2026-05-05 13:35 42.51004 4.97395 33949 ft 513 kts 10°
2026-05-05 13:35 42.57839 5.00140 33956 ft 512 kts 10°
2026-05-05 13:36 42.64667 5.02898 33956 ft 512 kts 10°
2026-05-05 13:36 42.71504 5.05657 33953 ft 512 kts 10°
2026-05-05 13:37 42.78327 5.08420 33956 ft 512 kts 10°
2026-05-05 13:37 42.85203 5.11211 33953 ft 512 kts 10°
2026-05-05 13:38 42.92032 5.13974 33985 ft 512 kts 10°
2026-05-05 13:38 42.95471 5.15014 33978 ft 500 kts 357°
2026-05-05 13:38 42.98834 5.15007 33972 ft 482 kts 343°
2026-05-05 13:39 43.05466 5.13595 33953 ft 479 kts 341°
2026-05-05 13:39 43.11993 5.12135 33964 ft 479 kts 342°
2026-05-05 13:40 43.18577 5.10670 33958 ft 479 kts 342°
2026-05-05 13:40 43.25159 5.09216 33953 ft 479 kts 342°
2026-05-05 13:41 43.31746 5.07754 33953 ft 479 kts 342°
2026-05-05 13:41 43.38330 5.06292 33971 ft 479 kts 342°
2026-05-05 13:42 43.43842 5.05070 33961 ft 479 kts 342°
2026-05-05 13:42 43.50421 5.03605 33956 ft 479 kts 342°
2026-05-05 13:43 43.57002 5.02132 33970 ft 479 kts 342°
2026-05-05 13:43 43.63579 5.00656 33935 ft 479 kts 342°
2026-05-05 13:44 43.70161 4.99171 33934 ft 479 kts 342°
2026-05-05 13:44 43.76739 4.97691 33941 ft 479 kts 342°
2026-05-05 13:45 43.83322 4.96209 33937 ft 479 kts 342°
2026-05-05 13:45 43.89898 4.94717 33959 ft 479 kts 342°
2026-05-05 13:46 43.96482 4.93228 33941 ft 479 kts 342°
2026-05-05 13:46 44.03069 4.91735 33931 ft 480 kts 341°
2026-05-05 13:47 44.09658 4.90239 33926 ft 480 kts 342°
2026-05-05 13:47 44.16242 4.88736 33945 ft 480 kts 342°
2026-05-05 13:48 44.22785 4.87235 33935 ft 479 kts 342°
2026-05-05 13:48 44.29366 4.85726 33931 ft 479 kts 342°
2026-05-05 13:49 44.35944 4.84219 33934 ft 479 kts 342°
2026-05-05 13:49 44.42514 4.82704 33929 ft 478 kts 342°
2026-05-05 13:50 44.49085 4.81190 33928 ft 478 kts 342°
2026-05-05 13:50 44.55642 4.79677 33939 ft 477 kts 343°
2026-05-05 13:51 44.62192 4.78165 33919 ft 477 kts 342°
2026-05-05 13:51 44.68741 4.76642 33912 ft 477 kts 342°
2026-05-05 13:52 44.75287 4.75103 33907 ft 477 kts 342°
2026-05-05 13:52 44.81834 4.73570 33893 ft 476 kts 343°
2026-05-05 13:53 44.88375 4.72038 33892 ft 477 kts 342°
2026-05-05 13:53 44.94913 4.70512 33913 ft 477 kts 343°
2026-05-05 13:54 45.01450 4.68983 33914 ft 476 kts 343°
2026-05-05 13:54 45.07982 4.67440 33906 ft 475 kts 343°
2026-05-05 13:55 45.14503 4.65894 33904 ft 475 kts 343°
2026-05-05 13:55 45.21015 4.64355 33901 ft 474 kts 343°
2026-05-05 13:56 45.27524 4.62812 33914 ft 474 kts 345°
2026-05-05 13:56 45.33986 4.61274 33900 ft 473 kts 346°
2026-05-05 13:57 45.40479 4.59728 33896 ft 473 kts 346°
2026-05-05 13:57 45.46965 4.58181 33895 ft 473 kts 345°
2026-05-05 13:58 45.53446 4.56630 33905 ft 472 kts 346°
2026-05-05 13:58 45.59923 4.55072 33895 ft 472 kts 346°
2026-05-05 13:59 45.69628 4.52738 33903 ft 471 kts 346°
2026-05-05 14:00 45.79349 4.50390 33884 ft 471 kts 346°
2026-05-05 14:00 45.85810 4.48828 33870 ft 470 kts 346°
2026-05-05 14:01 45.92204 4.46987 33871 ft 464 kts 336°
2026-05-05 14:01 45.98224 4.43666 33870 ft 464 kts 335°
2026-05-05 14:02 46.04237 4.40314 33868 ft 464 kts 335°
2026-05-05 14:02 46.10212 4.36969 33890 ft 464 kts 335°
2026-05-05 14:03 46.16266 4.33577 33884 ft 464 kts 335°
2026-05-05 14:03 46.22239 4.30218 33878 ft 464 kts 335°
2026-05-05 14:04 46.28250 4.26837 33874 ft 464 kts 336°
2026-05-05 14:04 46.34276 4.23509 33870 ft 464 kts 336°
2026-05-05 14:05 46.40316 4.20185 33869 ft 464 kts 336°
2026-05-05 14:05 46.46342 4.16841 33871 ft 464 kts 336°
2026-05-05 14:06 46.52367 4.13479 33872 ft 464 kts 336°
2026-05-05 14:06 46.58391 4.10107 33867 ft 464 kts 336°
2026-05-05 14:07 46.64412 4.06725 33865 ft 464 kts 336°
2026-05-05 14:07 46.70436 4.03335 33880 ft 464 kts 337°
2026-05-05 14:08 46.76455 3.99948 33868 ft 464 kts 337°
2026-05-05 14:08 46.82477 3.96564 33864 ft 464 kts 337°
2026-05-05 14:09 46.88500 3.93166 33863 ft 464 kts 337°
2026-05-05 14:09 46.94515 3.89758 33861 ft 463 kts 337°
2026-05-05 14:10 47.00512 3.86346 33860 ft 462 kts 337°
2026-05-05 14:10 47.06510 3.82926 33857 ft 462 kts 337°
2026-05-05 14:11 47.12499 3.79502 33850 ft 462 kts 337°
2026-05-05 14:11 47.18492 3.76076 33845 ft 462 kts 338°
2026-05-05 14:12 47.24477 3.72644 33846 ft 462 kts 338°
2026-05-05 14:12 47.30460 3.69208 33845 ft 462 kts 338°
2026-05-05 14:13 47.36444 3.65764 33828 ft 462 kts 338°
2026-05-05 14:13 47.42427 3.62304 33825 ft 462 kts 338°
2026-05-05 14:14 47.48404 3.58837 33827 ft 461 kts 338°
2026-05-05 14:14 47.54377 3.55365 33826 ft 461 kts 338°
2026-05-05 14:15 47.60346 3.51890 33828 ft 461 kts 338°
2026-05-05 14:15 47.66314 3.48399 33824 ft 461 kts 338°
2026-05-05 14:16 47.72280 3.44908 33820 ft 461 kts 338°
2026-05-05 14:16 47.78244 3.41419 33812 ft 460 kts 338°
2026-05-05 14:17 47.84203 3.37917 33812 ft 460 kts 338°
2026-05-05 14:17 47.90148 3.34402 33832 ft 459 kts 339°
2026-05-05 14:18 47.96081 3.30901 33822 ft 459 kts 339°
2026-05-05 14:18 48.02018 3.27398 33818 ft 459 kts 340°
2026-05-05 14:19 48.07931 3.23885 33815 ft 457 kts 339°
2026-05-05 14:19 48.13834 3.20360 33813 ft 456 kts 339°
2026-05-05 14:20 48.19728 3.16844 33799 ft 456 kts 340°
2026-05-05 14:20 48.25619 3.13330 33797 ft 456 kts 339°
2026-05-05 14:21 48.31514 3.09802 33797 ft 456 kts 339°
2026-05-05 14:21 48.37414 3.06252 33800 ft 456 kts 339°
2026-05-05 14:22 48.43303 3.02691 33790 ft 457 kts 339°
2026-05-05 14:22 48.49205 2.99127 33803 ft 457 kts 339°
2026-05-05 14:23 48.55110 2.95546 33804 ft 457 kts 339°
2026-05-05 14:23 48.61015 2.91960 33810 ft 457 kts 339°
2026-05-05 14:24 48.66914 2.88372 33803 ft 458 kts 339°
2026-05-05 14:24 48.71819 2.85376 33802 ft 457 kts 339°
2026-05-05 14:25 48.77721 2.81765 33803 ft 458 kts 339°
2026-05-05 14:25 48.83631 2.78154 33825 ft 458 kts 339°
2026-05-05 14:26 48.89534 2.74522 33833 ft 458 kts 339°
2026-05-05 14:26 48.95435 2.70875 33840 ft 458 kts 339°
2026-05-05 14:27 49.01348 2.67220 33845 ft 458 kts 339°
2026-05-05 14:27 49.07250 2.63563 33845 ft 458 kts 338°
2026-05-05 14:28 49.13153 2.59904 33842 ft 458 kts 338°
2026-05-05 14:28 49.19056 2.56235 33839 ft 458 kts 338°
2026-05-05 14:29 49.24966 2.52545 33835 ft 458 kts 338°
2026-05-05 14:29 49.30865 2.48848 33838 ft 458 kts 338°
2026-05-05 14:30 49.36771 2.45145 33850 ft 459 kts 338°
2026-05-05 14:30 49.42642 2.41453 33857 ft 458 kts 338°
2026-05-05 14:31 49.48576 2.37706 33859 ft 458 kts 338°
2026-05-05 14:31 49.54444 2.33988 33853 ft 459 kts 338°
2026-05-05 14:32 49.60350 2.30253 33856 ft 459 kts 338°
2026-05-05 14:32 49.66253 2.26507 33856 ft 459 kts 338°
2026-05-05 14:33 49.72157 2.22744 33869 ft 459 kts 338°
2026-05-05 14:33 49.78050 2.18985 33867 ft 458 kts 337°
2026-05-05 14:34 49.83954 2.15197 33869 ft 458 kts 337°
2026-05-05 14:34 49.89832 2.11406 33874 ft 458 kts 337°
2026-05-05 14:35 49.95717 2.07615 33872 ft 458 kts 337°
2026-05-05 14:35 50.01593 2.03820 33881 ft 457 kts 337°
2026-05-05 14:36 50.07467 2.00011 33889 ft 457 kts 337°
2026-05-05 14:36 50.13328 1.96208 33896 ft 456 kts 337°
2026-05-05 14:37 50.19188 1.92400 33889 ft 456 kts 336°
2026-05-05 14:37 50.25038 1.88577 33898 ft 455 kts 336°
2026-05-05 14:38 50.30878 1.84743 33900 ft 455 kts 336°
2026-05-05 14:38 50.36744 1.81009 33917 ft 455 kts 338°
2026-05-05 14:39 50.42664 1.77509 33908 ft 455 kts 339°
2026-05-05 14:39 50.48581 1.74030 33905 ft 454 kts 338°
2026-05-05 14:40 50.54482 1.70480 33902 ft 454 kts 337°
2026-05-05 14:40 50.60371 1.66882 33903 ft 453 kts 337°
2026-05-05 14:41 50.66048 1.62663 33923 ft 450 kts 324°
2026-05-05 14:41 50.70867 1.56468 33942 ft 446 kts 317°
2026-05-05 14:42 50.75537 1.49997 33943 ft 446 kts 317°
2026-05-05 14:42 50.80196 1.43534 33941 ft 446 kts 316°
2026-05-05 14:43 50.84857 1.37046 33948 ft 446 kts 317°
2026-05-05 14:43 50.89504 1.30558 33956 ft 446 kts 317°
2026-05-05 14:44 50.94152 1.24049 33957 ft 446 kts 316°
2026-05-05 14:44 50.98794 1.17521 33956 ft 446 kts 316°
2026-05-05 14:45 51.03424 1.10971 33951 ft 446 kts 316°
2026-05-05 14:45 51.08037 1.04386 33955 ft 446 kts 315°
2026-05-05 14:46 51.12499 0.97553 33959 ft 445 kts 313°
2026-05-05 14:46 51.16876 0.90603 34026 ft 444 kts 313°
2026-05-05 14:47 51.21223 0.83751 34051 ft 442 kts 313°
2026-05-05 14:47 51.25648 0.76860 34068 ft 441 kts 313°
2026-05-05 14:48 51.30030 0.70020 34078 ft 440 kts 313°
2026-05-05 14:48 51.34372 0.63221 33982 ft 440 kts 313°
2026-05-05 14:49 51.38723 0.56368 33986 ft 439 kts 313°
2026-05-05 14:49 51.43055 0.49501 33987 ft 438 kts 313°
2026-05-05 14:50 51.47386 0.42636 33992 ft 438 kts 313°
2026-05-05 14:50 51.51719 0.35763 33985 ft 438 kts 313°
2026-05-05 14:51 51.56034 0.28883 33983 ft 437 kts 313°
2026-05-05 14:51 51.60351 0.21989 33987 ft 437 kts 312°
2026-05-05 14:52 51.64659 0.15081 33985 ft 437 kts 312°
2026-05-05 14:52 51.68941 0.08130 33982 ft 437 kts 311°
2026-05-05 14:53 51.73185 0.01136 33979 ft 437 kts 311°
2026-05-05 14:53 51.77427 -0.05883 34019 ft 437 kts 311°
2026-05-05 14:54 51.81685 -0.12929 34020 ft 438 kts 311°
2026-05-05 14:54 51.85920 -0.19949 33958 ft 440 kts 311°
2026-05-05 14:55 51.90205 -0.27057 33958 ft 441 kts 311°
2026-05-05 14:55 51.94493 -0.34193 33961 ft 442 kts 311°
2026-05-05 14:56 51.98773 -0.41347 33963 ft 443 kts 311°
2026-05-05 14:56 52.03057 -0.48535 33965 ft 443 kts 311°
2026-05-05 14:57 52.07335 -0.55733 33934 ft 443 kts 311°
2026-05-05 14:57 52.09481 -0.59356 32908 ft 450 kts 311°
2026-05-05 14:57 52.11681 -0.63079 31956 ft 457 kts 311°
2026-05-05 14:58 52.13857 -0.66759 31677 ft 447 kts 310°
2026-05-05 14:58 52.16005 -0.70390 31120 ft 444 kts 310°
2026-05-05 14:58 52.18143 -0.74009 30576 ft 441 kts 310°
2026-05-05 14:58 52.20259 -0.77601 30052 ft 438 kts 310°
2026-05-05 14:59 52.22366 -0.81179 29454 ft 435 kts 310°
2026-05-05 14:59 52.24518 -0.84608 28930 ft 432 kts 317°
2026-05-05 14:59 52.26964 -0.87451 28411 ft 431 kts 326°
2026-05-05 14:59 52.29520 -0.89975 27895 ft 427 kts 325°
2026-05-05 15:00 52.32047 -0.92479 27382 ft 423 kts 325°
2026-05-05 15:00 52.33743 -0.94166 27060 ft 420 kts 325°
2026-05-05 15:00 52.37024 -0.97438 26415 ft 414 kts 325°
2026-05-05 15:00 52.39470 -0.99883 25949 ft 410 kts 326°
2026-05-05 15:01 52.41896 -1.02313 25487 ft 406 kts 326°
2026-05-05 15:01 52.44292 -1.04713 25044 ft 401 kts 326°
2026-05-05 15:01 52.46661 -1.07088 24608 ft 397 kts 326°
2026-05-05 15:01 52.49005 -1.09444 24181 ft 393 kts 326°
2026-05-05 15:02 52.51320 -1.11776 23747 ft 389 kts 326°
2026-05-05 15:02 52.53616 -1.14093 23259 ft 385 kts 326°
2026-05-05 15:02 52.55883 -1.16381 22837 ft 380 kts 326°
2026-05-05 15:02 52.58120 -1.18636 22400 ft 375 kts 326°
2026-05-05 15:03 52.60327 -1.20862 21975 ft 370 kts 326°
2026-05-05 15:03 52.62509 -1.23063 21542 ft 366 kts 326°
2026-05-05 15:03 52.64669 -1.25240 21116 ft 362 kts 326°
2026-05-05 15:03 52.66803 -1.27401 20688 ft 359 kts 326°
2026-05-05 15:04 52.68922 -1.29558 20259 ft 356 kts 326°
2026-05-05 15:04 52.71025 -1.31699 19813 ft 354 kts 326°
2026-05-05 15:04 52.73120 -1.33832 19352 ft 354 kts 326°
2026-05-05 15:04 52.75210 -1.35965 18880 ft 352 kts 326°
2026-05-05 15:05 52.79361 -1.40204 17945 ft 350 kts 325°
2026-05-05 15:05 52.81424 -1.42310 17495 ft 347 kts 326°
2026-05-05 15:05 52.83464 -1.44391 17055 ft 344 kts 326°
2026-05-05 15:06 52.85490 -1.46461 16623 ft 341 kts 326°
2026-05-05 15:06 52.87497 -1.48519 16184 ft 338 kts 326°
2026-05-05 15:06 52.89491 -1.50571 15756 ft 336 kts 326°
2026-05-05 15:06 52.91475 -1.52612 15328 ft 334 kts 326°
2026-05-05 15:07 52.93442 -1.54641 14908 ft 333 kts 326°
2026-05-05 15:07 52.95401 -1.56666 14483 ft 331 kts 326°
2026-05-05 15:07 52.97353 -1.58685 14051 ft 330 kts 326°
2026-05-05 15:07 52.99276 -1.60670 13618 ft 329 kts 327°
2026-05-05 15:08 53.01219 -1.62675 13195 ft 327 kts 327°
2026-05-05 15:08 53.03146 -1.64663 12780 ft 325 kts 327°
2026-05-05 15:08 53.05021 -1.66721 12363 ft 321 kts 320°
2026-05-05 15:08 53.06606 -1.69296 11956 ft 317 kts 309°
2026-05-05 15:09 53.08028 -1.72073 11635 ft 312 kts 309°
2026-05-05 15:09 53.09412 -1.74761 11503 ft 301 kts 310°
2026-05-05 15:09 53.10755 -1.77360 11339 ft 292 kts 310°
2026-05-05 15:09 53.12069 -1.79905 11011 ft 289 kts 310°
2026-05-05 15:10 53.13379 -1.82444 10645 ft 288 kts 310°
2026-05-05 15:10 53.14679 -1.84971 10255 ft 288 kts 310°
2026-05-05 15:10 53.15968 -1.87479 9965 ft 283 kts 310°
2026-05-05 15:10 53.17248 -1.89973 9549 ft 283 kts 310°
2026-05-05 15:11 53.18522 -1.92461 9162 ft 281 kts 310°
2026-05-05 15:11 53.19361 -1.94103 8909 ft 280 kts 310°
2026-05-05 15:11 53.20620 -1.96566 8526 ft 278 kts 310°
2026-05-05 15:11 53.21851 -1.98978 8392 ft 267 kts 310°
2026-05-05 15:12 53.22962 -2.01374 8256 ft 256 kts 300°
2026-05-05 15:12 53.23569 -2.04166 7683 ft 264 kts 275°
2026-05-05 15:12 53.23366 -2.07244 7144 ft 271 kts 258°
2026-05-05 15:12 53.22872 -2.10300 6688 ft 274 kts 254°
2026-05-05 15:13 53.22177 -2.14385 6161 ft 273 kts 255°
2026-05-05 15:13 53.21832 -2.16402 5903 ft 272 kts 256°
2026-05-05 15:13 53.21313 -2.19370 5761 ft 261 kts 255°
2026-05-05 15:13 53.20813 -2.22216 5627 ft 251 kts 255°
2026-05-05 15:14 53.20319 -2.24967 5395 ft 245 kts 255°
2026-05-05 15:14 53.19840 -2.27676 5106 ft 243 kts 256°
2026-05-05 15:14 53.19363 -2.30368 4775 ft 242 kts 255°
2026-05-05 15:14 53.18890 -2.33049 4469 ft 240 kts 255°
2026-05-05 15:15 53.18426 -2.35716 4144 ft 239 kts 255°
2026-05-05 15:15 53.17951 -2.38371 3829 ft 239 kts 255°
2026-05-05 15:15 53.17478 -2.40998 3658 ft 236 kts 256°
2026-05-05 15:15 53.16999 -2.43630 3529 ft 237 kts 256°
2026-05-05 15:16 53.16903 -2.46315 3401 ft 231 kts 287°
2026-05-05 15:16 53.17645 -2.48604 3289 ft 223 kts 314°
2026-05-05 15:16 53.18712 -2.50362 3164 ft 210 kts 319°
2026-05-05 15:16 53.19806 -2.51867 3045 ft 197 kts 334°
2026-05-05 15:17 53.21062 -2.52473 2998 ft 184 kts 357°
2026-05-05 15:17 53.22328 -2.52438 3003 ft 181 kts
2026-05-05 15:17 53.23456 -2.51647 2991 ft 180 kts 50°
2026-05-05 15:17 53.24075 -2.49845 3013 ft 177 kts 57°
2026-05-05 15:18 53.24795 -2.48305 2855 ft 167 kts 48°
2026-05-05 15:18 53.25525 -2.46837 2646 ft 163 kts 49°
2026-05-05 15:18 53.26252 -2.45357 2432 ft 161 kts 48°
2026-05-05 15:18 53.26962 -2.43904 2213 ft 160 kts 47°
2026-05-05 15:19 53.27663 -2.42465 2000 ft 159 kts 49°
2026-05-05 15:19 53.28350 -2.41053 1796 ft 153 kts 49°
2026-05-05 15:19 53.29004 -2.39709 1575 ft 146 kts 48°
2026-05-05 15:19 53.29636 -2.38407 1377 ft 144 kts 49°
2026-05-05 15:20 53.30264 -2.37115 1156 ft 144 kts 50°
2026-05-05 15:20 53.30888 -2.35831 963 ft 145 kts 49°
2026-05-05 15:20 53.31529 -2.34509 761 ft 147 kts 49°
2026-05-05 15:20 53.32193 -2.33142 584 ft 150 kts 50°
2026-05-05 15:21 53.32844 -2.31788 390 ft 152 kts 50°
2026-05-05 15:21 53.33512 -2.30423 236 ft 149 kts 50°
2026-05-05 15:21 53.34072 -2.29252 231 ft 103 kts 51°
2026-05-05 15:21 53.34419 -2.28597 226 ft 49 kts 38°
2026-05-05 15:22 53.34658 -2.28436 230 ft 25 kts 20°
2026-05-05 15:22 53.34772 -2.28278 230 ft 20 kts 51°
2026-05-05 15:22 53.34861 -2.28092 229 ft 24 kts 51°
2026-05-05 15:22 53.34973 -2.27859 229 ft 27 kts 51°
2026-05-05 15:23 53.35090 -2.27617 233 ft 25 kts 51°
2026-05-05 15:23 53.35200 -2.27390 237 ft 25 kts 51°
2026-05-05 15:23 53.35295 -2.27202 241 ft 13 kts 43°
2026-05-05 15:23 53.35352 -2.27190 245 ft 9 kts 353°
2026-05-05 15:24 53.35428 -2.27260 247 ft 16 kts 317°
2026-05-05 15:24 53.35535 -2.27411 247 ft 23 kts 321°
2026-05-05 15:24 53.35603 -2.27495 245 ft 0 kts 323°
2026-05-05 15:25 53.35604 -2.27497 245 ft 2 kts 322°
2026-05-05 15:26 53.35636 -2.27541 246 ft 9 kts 320°
2026-05-05 15:26 53.35698 -2.27619 247 ft 13 kts 333°
2026-05-05 15:26 53.35769 -2.27650 251 ft 7 kts 360°
2026-05-05 15:26 53.35796 -2.27647 254 ft 2 kts
2026-05-05 15:27 53.35800 -2.27647 254 ft 0 kts
2026-05-05 15:27 53.35826 -2.27642 255 ft 10 kts
2026-05-05 15:27 53.35925 -2.27628 255 ft 16 kts
2026-05-05 15:27 53.36041 -2.27620 255 ft 15 kts
2026-05-05 15:28 53.36085 -2.27720 255 ft 10 kts 285°
2026-05-05 15:28 53.36102 -2.27835 255 ft 11 kts 284°
2026-05-05 15:28 53.36143 -2.27956 255 ft 14 kts 321°
2026-05-05 15:28 53.36219 -2.28074 255 ft 15 kts 315°
2026-05-05 15:29 53.36294 -2.28198 255 ft 15 kts 315°
2026-05-05 15:29 53.36363 -2.28316 255 ft 14 kts 315°
2026-05-05 15:29 53.36415 -2.28464 255 ft 16 kts 294°
2026-05-05 15:29 53.36500 -2.28620 255 ft 20 kts 318°
2026-05-05 15:30 53.36597 -2.28783 255 ft 14 kts 322°
2026-05-05 15:30 53.36672 -2.28712 255 ft 13 kts 44°
2026-05-05 15:30 53.36708 -2.28667 255 ft 3 kts
2026-05-05 15:30 53.36727 -2.28683 255 ft 5 kts 323°
2026-05-05 15:31 53.36757 -2.28733 255 ft 5 kts 315°
2026-05-05 15:31 53.36763 -2.28743 255 ft 0 kts 314°
2026-05-05 15:31 53.36766 -2.28748 255 ft 0 kts 314°